Change the Weather History Date:

Sunday, November 14, 2010

  Actual Average Record
Temperature  
Mean Temperature 47 °F 52 °F  
Max Temperature 59 °F 64 °F 82 °F (1999)
Min Temperature 34 °F 41 °F 19 °F (1963)
Degree Days  
Heating Degree Days 18 13  
Month to date heating degree days 115 148  
Since 1 July heating degree days 193 302  
Moisture  
Dew Point 35 °F    
Average Humidity 68    
Maximum Humidity 100    
Minimum Humidity 36    
Precipitation  
Precipitation T in 0.16 in 2.81 in (1994)
Month to date precipitation 0.41 2.12  
Year to date precipitation 31.07 39.85  
Sea Level Pressure  
Sea Level Pressure 30.09 in    
Wind  
Wind Speed 1 mph (NE)    
Max Wind Speed 10 mph    
Max Gust Speed 13 mph    
Visibility 6 miles    
Events Fog    
T = Trace of Precipitation, MM = Missing Value Source: NWS Daily Summary

Daily Weather History Graph

Daily Weather History Graph

Search for Another Location

Airport or City:

Trip Planner

Search our weather history database for the weather conditions in past years. The results will help you decide how hot, cold, wet, or windy it might be!

Date:

Astronomy

Nov. 14, 2010 Rise Set
Actual Time 6:51 AM CST 5:11 PM CST
Civil Twilight 6:24 AM CST 5:38 PM CST
Nautical Twilight 5:53 AM CST 6:09 PM CST
Astronomical Twilight 5:23 AM CST 6:39 PM CST
Moon 1:17 PM CST (11/14) 12:15 AM CST (11/14)
Length of Visible Light 11h 14m
Length of Day
10h 20m
First Quarter, 60% of the Moon is Illuminated
Nov 14
First Quarter
Nov 21
Full
Nov 28
Last Quarter
Dec 5
New
Dec 13
First Quarter

Hourly Weather History & Observations

Time (CST) Temp. Windchill Dew Point Humidity Pressure Visibility Wind Dir Wind Speed Gust Speed Precip Events Conditions
12:53 AM 37.4 °F - 35.6 °F 93% 30.14 in 10.0 mi Calm Calm - N/A   Clear
1:53 AM 37.9 °F - 35.1 °F 89% 30.13 in 10.0 mi Calm Calm - N/A   Clear
2:53 AM 36.0 °F - 33.1 °F 89% 30.13 in 10.0 mi Calm Calm - N/A   Clear
3:53 AM 36.0 °F - 34.0 °F 93% 30.12 in 6.0 mi Calm Calm - N/A   Clear
4:18 AM 33.8 °F - 32.0 °F 93% 30.12 in 2.0 mi Calm Calm - N/A   Partly Cloudy
4:22 AM 33.8 °F - 32.0 °F 93% 30.12 in 1.2 mi Calm Calm - N/A   Scattered Clouds
4:24 AM 35.6 °F - 33.8 °F 93% 30.12 in 0.8 mi Calm Calm - N/A   Mist
4:33 AM 35.6 °F - 33.8 °F 93% 30.12 in 0.2 mi Calm Calm - N/A Fog Fog
4:50 AM 33.8 °F - 32.0 °F 93% 30.12 in 0.5 mi Calm Calm - N/A Fog Fog
4:53 AM 34.0 °F - 32.0 °F 92% 30.13 in 0.5 mi Calm Calm - N/A Fog Fog
5:01 AM 33.8 °F - 33.8 °F 100% 30.12 in 2.0 mi Calm Calm - N/A   Overcast
5:10 AM 35.6 °F - 33.8 °F 93% 30.12 in 0.8 mi Calm Calm - N/A   Mist
5:19 AM 33.8 °F - 33.8 °F 100% 30.12 in 0.5 mi Calm Calm - N/A Fog Fog
5:28 AM 35.6 °F - 33.8 °F 93% 30.12 in 0.2 mi Calm Calm - N/A Fog Fog
5:53 AM 35.1 °F - 34.0 °F 96% 30.14 in 0.2 mi Calm Calm - N/A Fog Fog
6:53 AM 37.9 °F - 37.0 °F 97% 30.16 in 0.2 mi Calm Calm - N/A Fog Fog
7:50 AM 37.4 °F - 37.4 °F 100% 30.17 in 1.0 mi Calm Calm - N/A   Mist
7:53 AM 37.9 °F - 37.0 °F 97% 30.18 in 1.2 mi Calm Calm - 0.00 in   Mostly Cloudy
7:58 AM 37.4 °F - 37.4 °F 100% 30.17 in 2.5 mi Calm Calm - N/A   Mostly Cloudy
8:01 AM 37.4 °F - 37.4 °F 100% 30.17 in 4.0 mi Calm Calm - N/A   Scattered Clouds
8:09 AM 37.4 °F - 37.4 °F 100% 30.16 in 2.5 mi Calm Calm - N/A   Mostly Cloudy
8:17 AM 37.4 °F 34.9 °F 37.4 °F 100% 30.16 in 3.0 mi ENE 3.5 mph - N/A   Partly Cloudy
8:53 AM 39.2 °F - 37.4 °F 93% 30.16 in 10.0 mi Calm Calm - N/A   Clear
9:53 AM 45.0 °F - 39.0 °F 80% 30.17 in 10.0 mi Calm Calm - N/A   Clear
10:53 AM 50.0 °F - 39.0 °F 66% 30.16 in 10.0 mi Calm Calm - N/A   Clear
11:53 AM 55.0 °F - 37.0 °F 51% 30.12 in 10.0 mi Calm Calm - N/A   Clear
12:53 PM 57.0 °F - 36.0 °F 45% 30.08 in 10.0 mi WSW 6.9 mph - N/A   Partly Cloudy
1:53 PM 57.0 °F - 35.1 °F 44% 30.04 in 10.0 mi Calm Calm - N/A   Clear
2:53 PM 59.0 °F - 32.0 °F 36% 30.02 in 10.0 mi Calm Calm - N/A   Clear
3:53 PM 57.9 °F - 30.9 °F 36% 30.00 in 10.0 mi WSW 3.5 mph - N/A   Clear
4:53 PM 57.0 °F - 30.0 °F 36% 29.98 in 10.0 mi East 3.5 mph - N/A   Clear
5:53 PM 53.1 °F - 36.0 °F 52% 29.98 in 10.0 mi Calm Calm - N/A   Clear
6:53 PM 46.9 °F - 37.0 °F 68% 29.98 in 10.0 mi Calm Calm - N/A   Clear
7:53 PM 46.0 °F - 37.0 °F 71% 29.97 in 10.0 mi Calm Calm - N/A   Clear
8:53 PM 46.0 °F 43.9 °F 39.0 °F 76% 29.98 in 10.0 mi NNE 4.6 mph - N/A   Clear
9:53 PM 46.0 °F - 39.0 °F 76% 29.97 in 10.0 mi Calm Calm - N/A   Partly Cloudy
10:53 PM 46.0 °F - 39.0 °F 76% 29.97 in 10.0 mi Calm Calm - N/A   Overcast
11:53 PM 46.0 °F 43.9 °F 39.9 °F 79% 29.96 in 10.0 mi NE 4.6 mph - N/A   Overcast